| time (UTC) | temp F | wind direction | speed knots | gust knots | rain 1hr in | rain 24hr in | rain mn in | humidity % | barometer mb |
| 20260506185128 | 84 | 140 | 1.7 | 3.5 | 0.00 | 0.00 | 0.00 | 80 | 1010.2 |
| 20260506184626 | 84 | 236 | 0.9 | 2.6 | 0.00 | 0.00 | 0.00 | 80 | 1010.3 |
| 20260506184123 | 84 | 203 | 0.9 | 1.7 | 0.00 | 0.00 | 0.00 | 80 | 1010.5 |
| 20260506183619 | 85 | 238 | 0.9 | 1.7 | 0.00 | 0.00 | 0.00 | 80 | 1010.2 |
| 20260506183115 | 84 | 117 | 0.9 | 2.6 | 0.00 | 0.00 | 0.00 | 80 | 1010.4 |
| 20260506182613 | 84 | 127 | 1.7 | 1.7 | 0.00 | 0.00 | 0.00 | 80 | 1010.5 |
| 20260506182110 | 84 | 135 | 1.7 | 2.6 | 0.00 | 0.00 | 0.00 | 80 | 1010.6 |
| 20260506181608 | 84 | 232 | 0.9 | 1.7 | 0.00 | 0.00 | 0.00 | 81 | 1010.7 |
| 20260506181105 | 84 | 233 | 0.9 | 1.7 | 0.00 | 0.00 | 0.00 | 81 | 1010.8 |
| 20260506180601 | 83 | 204 | 0.0 | 1.7 | 0.00 | 0.00 | 0.00 | 81 | 1010.7 |
| 20260506180058 | 83 | 150 | 0.9 | 1.7 | 0.00 | 0.00 | 0.00 | 82 | 1010.8 |
| 20260506175554 | 83 | 338 | 0.0 | 1.7 | 0.00 | 0.00 | 0.00 | 83 | 1010.9 |
| 20260506175050 | 82 | 357 | 0.0 | 0.9 | 0.00 | 0.00 | 0.00 | 84 | 1010.8 |
| 20260506174549 | 82 | 250 | 2.6 | 3.5 | 0.00 | 0.00 | 0.00 | 84 | 1010.8 |
| 20260506174045 | 82 | 123 | 1.7 | 2.6 | 0.00 | 0.00 | 0.00 | 83 | 1010.7 |
| 20260506173543 | 83 | 234 | 0.0 | 2.6 | 0.00 | 0.00 | 0.00 | 82 | 1010.9 |
| 20260506173039 | 83 | 267 | 0.0 | 0.9 | 0.00 | 0.00 | 0.00 | 81 | 1011.0 |
| 20260506172537 | 83 | 259 | 0.0 | 1.7 | 0.00 | 0.00 | 0.00 | 82 | 1011.0 |
| 20260506172033 | 83 | 147 | 0.0 | 2.6 | 0.00 | 0.00 | 0.00 | 82 | 1011.1 |
| 20260506171531 | 83 | 48 | 0.9 | 1.7 | 0.00 | 0.00 | 0.00 | 84 | 1011.2 |
| 20260506171028 | 82 | 273 | 0.0 | 2.6 | 0.00 | 0.00 | 0.00 | 84 | 1011.2 |
| 20260506170526 | 82 | 104 | 0.9 | 2.6 | 0.00 | 0.00 | 0.00 | 85 | 1011.3 |
| 20260506170023 | 81 | 294 | 1.7 | 2.6 | 0.00 | 0.00 | 0.00 | 88 | 1011.3 |
| 20260506165521 | 81 | 232 | 0.0 | 0.0 | 0.00 | 0.00 | 0.00 | 88 | 1011.4 |
| 20260506165017 | 81 | 237 | 0.0 | 0.0 | 0.00 | 0.00 | 0.00 | 89 | 1011.3 |
| 20260506164514 | 80 | 236 | 0.0 | 1.7 | 0.00 | 0.00 | 0.00 | 89 | 1011.3 |
| 20260506164012 | 80 | 215 | 0.0 | 1.7 | 0.00 | 0.00 | 0.00 | 90 | 1011.2 |
| 20260506163507 | 80 | 228 | 0.0 | 0.0 | 0.00 | 0.00 | 0.00 | 90 | 1011.1 |
| 20260506163003 | 80 | 263 | 0.0 | 0.9 | 0.00 | 0.00 | 0.00 | 89 | 1011.2 |
| 20260506162500 | 80 | 231 | 0.0 | 0.0 | 0.00 | 0.00 | 0.00 | 90 | 1011.2 |
| 20260506161957 | 80 | 115 | 0.9 | 0.9 | 0.00 | 0.00 | 0.00 | 89 | 1011.2 |
| 20260506161455 | 80 | 229 | 0.9 | 2.6 | 0.00 | 0.00 | 0.00 | 89 | 1011.2 |
| 20260506160952 | 80 | 258 | 0.0 | 0.0 | 0.00 | 0.00 | 0.00 | 89 | 1011.0 |
| 20260506160449 | 80 | 166 | 0.0 | 1.7 | 0.00 | 0.00 | 0.00 | 89 | 1011.2 |
| 20260506155946 | 80 | 112 | 0.9 | 1.7 | 0.00 | 0.00 | 0.00 | 89 | 1011.1 |
| 20260506155444 | 80 | 295 | 0.0 | 1.7 | 0.00 | 0.00 | 0.00 | 89 | 1011.1 |
| 20260506153610 | 79 | 260 | 0.0 | 0.9 | 0.00 | 0.00 | 0.00 | 91 | 1010.8 |
| 20260506153108 | 79 | 223 | 0.9 | 0.9 | 0.00 | 0.00 | 0.00 | 90 | 1010.7 |
| 20260506152605 | 79 | 79 | 0.0 | 0.0 | 0.00 | 0.00 | 0.00 | 90 | 1010.7 |
| 20260506152103 | 79 | 50 | 0.0 | 0.9 | 0.00 | 0.00 | 0.00 | 89 | 1010.5 |
| 20260506151600 | 79 | 141 | 0.9 | 1.7 | 0.00 | 0.00 | 0.00 | 89 | 1010.5 |
| 20260506151057 | 80 | 218 | 0.0 | 0.9 | 0.00 | 0.00 | 0.00 | 89 | 1010.7 |
| 20260506150554 | 80 | 194 | 0.9 | 1.7 | 0.00 | 0.00 | 0.00 | 89 | 1010.3 |
| 20260506150051 | 80 | 272 | 0.0 | 0.9 | 0.00 | 0.00 | 0.00 | 90 | 1010.3 |
| 20260506145547 | 79 | 244 | 0.0 | 1.7 | 0.00 | 0.00 | 0.00 | 90 | 1010.2 |
| 20260506145045 | 79 | 202 | 0.0 | 0.0 | 0.00 | 0.00 | 0.00 | 90 | 1010.1 |
| 20260506144542 | 79 | 242 | 0.0 | 2.6 | 0.00 | 0.00 | 0.00 | 90 | 1010.0 |
| 20260506144039 | 79 | 201 | 0.9 | 0.9 | 0.00 | 0.00 | 0.00 | 90 | 1009.8 |
| 20260506143536 | 79 | 203 | 0.0 | 1.7 | 0.00 | 0.00 | 0.00 | 90 | 1010.1 |
| 20260506143035 | 79 | 279 | 1.7 | 3.5 | 0.00 | 0.00 | 0.00 | 90 | 1010.2 |
| 20260506142532 | 79 | 242 | 0.0 | 0.0 | 0.00 | 0.00 | 0.00 | 90 | 1010.2 |
| 20260506142030 | 79 | 253 | 0.0 | 0.9 | 0.00 | 0.00 | 0.00 | 90 | 1010.1 |
| 20260506141528 | 79 | 233 | 0.0 | 0.9 | 0.00 | 0.00 | 0.00 | 90 | 1010.2 |
| 20260506141026 | 79 | 187 | 0.0 | 0.9 | 0.00 | 0.00 | 0.00 | 90 | 1010.2 |
| 20260506140523 | 79 | 210 | 0.9 | 1.7 | 0.00 | 0.00 | 0.00 | 90 | 1010.1 |
| 20260506140020 | 79 | 269 | 0.9 | 5.2 | 0.00 | 0.00 | 0.00 | 90 | 1010.3 |
| 20260506135517 | 79 | 173 | 2.6 | 2.6 | 0.00 | 0.00 | 0.00 | 91 | 1010.3 |
| 20260506135013 | 79 | 210 | 0.0 | 1.7 | 0.00 | 0.00 | 0.00 | 92 | 1010.3 |
| 20260506134509 | 78 | 205 | 0.0 | 0.0 | 0.00 | 0.00 | 0.00 | 92 | 1010.3 |
| 20260506134000 | 78 | 257 | 0.9 | 1.7 | 0.00 | 0.00 | 0.00 | 93 | 1010.1 |
| 20260506133458 | 78 | 258 | 0.0 | 0.0 | 0.00 | 0.00 | 0.00 | 93 | 1010.4 |
| 20260506132954 | 78 | 207 | 0.0 | 0.9 | 0.00 | 0.00 | 0.00 | 93 | 1010.4 |
| 20260506132451 | 78 | 208 | 0.0 | 0.0 | 0.00 | 0.00 | 0.00 | 93 | 1010.3 |
| 20260506131949 | 77 | 89 | 0.0 | 0.9 | 0.00 | 0.00 | 0.00 | 93 | 1010.5 |
| 20260506131445 | 77 | 201 | 0.9 | 2.6 | 0.00 | 0.00 | 0.00 | 94 | 1010.5 |
| 20260506130942 | 77 | 198 | 0.0 | 0.0 | 0.00 | 0.00 | 0.00 | 94 | 1010.3 |
| 20260506130439 | 77 | 198 | 0.0 | 0.9 | 0.00 | 0.00 | 0.00 | 94 | 1010.6 |
| 20260506125937 | 77 | 195 | 0.0 | 0.9 | 0.00 | 0.00 | 0.00 | 94 | 1010.4 |
| 20260506125435 | 77 | 213 | 0.0 | 0.9 | 0.00 | 0.00 | 0.00 | 94 | 1010.4 |
| 20260506124933 | 77 | 233 | 0.0 | 0.9 | 0.00 | 0.00 | 0.00 | 94 | 1010.3 |
| 20260506124430 | 77 | 207 | 0.0 | 0.9 | 0.00 | 0.00 | 0.00 | 94 | 1010.2 |
| 20260506123928 | 77 | 218 | 0.0 | 2.6 | 0.00 | 0.00 | 0.00 | 94 | 1010.3 |
| 20260506123426 | 77 | 188 | 0.0 | 2.6 | 0.00 | 0.00 | 0.00 | 95 | 1010.2 |
| 20260506122923 | 77 | 224 | 0.0 | 0.0 | 0.00 | 0.00 | 0.00 | 95 | 1010.0 |
| 20260506122419 | 77 | 247 | 0.0 | 0.9 | 0.00 | 0.00 | 0.00 | 95 | 1010.0 |
| 20260506121918 | 77 | 296 | 0.0 | 0.9 | 0.00 | 0.00 | 0.00 | 95 | 1010.0 |
| 20260506121414 | 77 | 203 | 0.0 | 0.9 | 0.00 | 0.00 | 0.00 | 95 | 1010.0 |
| 20260506120912 | 76 | 189 | 0.0 | 1.7 | 0.00 | 0.00 | 0.00 | 95 | 1009.9 |
| 20260506120409 | 76 | 266 | 0.0 | 0.9 | 0.00 | 0.00 | 0.00 | 95 | 1009.6 |
| 20260506115906 | 76 | 213 | 1.7 | 1.7 | 0.00 | 0.00 | 0.00 | 96 | 1009.6 |
| 20260506115404 | 76 | 225 | 0.9 | 1.7 | 0.00 | 0.00 | 0.00 | 96 | 1009.6 |
| 20260506114902 | 76 | 207 | 0.0 | 1.7 | 0.00 | 0.00 | 0.00 | 96 | 1009.6 |
| 20260506114359 | 76 | 214 | 1.7 | 2.6 | 0.00 | 0.00 | 0.00 | 96 | 1009.6 |
| 20260506113858 | 76 | 200 | 0.0 | 1.7 | 0.00 | 0.00 | 0.00 | 96 | 1009.4 |
| 20260506113355 | 76 | 185 | 0.0 | 0.9 | 0.00 | 0.00 | 0.00 | 96 | 1009.2 |
| 20260506112851 | 76 | 227 | 0.9 | 1.7 | 0.00 | 0.00 | 0.00 | 96 | 1009.3 |
| 20260506112349 | 76 | 263 | 0.0 | 0.0 | 0.00 | 0.00 | 0.00 | 96 | 1009.1 |
| 20260506111846 | 76 | 113 | 0.0 | 1.7 | 0.00 | 0.00 | 0.00 | 96 | 1009.3 |
| 20260506111344 | 76 | 228 | 0.0 | 1.7 | 0.00 | 0.00 | 0.00 | 96 | 1009.0 |
| 20260506110842 | 76 | 229 | 0.0 | 0.9 | 0.00 | 0.00 | 0.00 | 96 | 1009.2 |
| 20260506110338 | 76 | 317 | 0.0 | 0.0 | 0.00 | 0.00 | 0.00 | 96 | 1009.1 |
| 20260506105835 | 76 | 211 | 0.0 | 0.0 | 0.00 | 0.00 | 0.00 | 96 | 1009.1 |
| 20260506105332 | 76 | 221 | 0.0 | 0.9 | 0.00 | 0.00 | 0.00 | 96 | 1009.2 |
| 20260506104830 | 76 | 248 | 0.0 | 0.0 | 0.00 | 0.00 | 0.00 | 96 | 1009.2 |
| 20260506104327 | 76 | 257 | 0.0 | 0.0 | 0.00 | 0.00 | 0.00 | 96 | 1009.4 |
| 20260506103824 | 75 | 186 | 0.0 | 0.0 | 0.00 | 0.00 | 0.00 | 96 | 1009.4 |
| 20260506103322 | 75 | 194 | 0.0 | 0.0 | 0.00 | 0.00 | 0.00 | 96 | 1009.3 |
| 20260506102819 | 75 | 194 | 0.0 | 0.0 | 0.00 | 0.00 | 0.00 | 95 | 1009.3 |
| 20260506102317 | 75 | 194 | 0.0 | 0.0 | 0.00 | 0.00 | 0.00 | 95 | 1009.2 |
| 20260506101814 | 75 | 194 | 0.0 | 0.0 | 0.00 | 0.00 | 0.00 | 95 | 1009.4 |
| 20260506101310 | 75 | 194 | 0.0 | 0.0 | 0.00 | 0.00 | 0.00 | 95 | 1009.1 |
| 20260506100808 | 75 | 194 | 0.0 | 0.0 | 0.00 | 0.00 | 0.00 | 95 | 1008.8 |
| 20260506100306 | 75 | 194 | 0.0 | 0.0 | 0.00 | 0.00 | 0.00 | 95 | 1009.1 |
| 20260506095804 | 75 | 194 | 0.0 | 0.0 | 0.00 | 0.00 | 0.00 | 95 | 1009.1 |
| 20260506095301 | 76 | 194 | 0.0 | 0.0 | 0.00 | 0.00 | 0.00 | 95 | 1009.0 |
| 20260506094757 | 76 | 194 | 0.0 | 0.0 | 0.00 | 0.00 | 0.00 | 94 | 1009.0 |
| 20260506094256 | 76 | 194 | 0.0 | 0.9 | 0.00 | 0.00 | 0.00 | 94 | 1008.9 |
| 20260506093754 | 76 | 194 | 0.0 | 0.0 | 0.00 | 0.00 | 0.00 | 94 | 1008.8 |
| 20260506093251 | 76 | 206 | 0.0 | 0.0 | 0.00 | 0.00 | 0.00 | 94 | 1009.0 |
| 20260506092749 | 76 | 206 | 0.0 | 0.0 | 0.00 | 0.00 | 0.00 | 94 | 1009.2 |
| 20260506092246 | 76 | 206 | 0.0 | 0.0 | 0.00 | 0.00 | 0.00 | 94 | 1009.0 |
| 20260506091743 | 76 | 213 | 0.0 | 0.0 | 0.00 | 0.00 | 0.00 | 94 | 1008.9 |
| 20260506091241 | 76 | 224 | 0.0 | 0.0 | 0.00 | 0.00 | 0.00 | 93 | 1009.0 |
| 20260506090739 | 76 | 224 | 0.0 | 0.0 | 0.00 | 0.00 | 0.00 | 93 | 1009.3 |
| 20260506090235 | 76 | 225 | 0.0 | 0.0 | 0.00 | 0.00 | 0.00 | 93 | 1008.9 |
| 20260506085732 | 76 | 218 | 0.9 | 1.7 | 0.00 | 0.00 | 0.00 | 93 | 1009.1 |
| 20260506085228 | 77 | 274 | 0.0 | 0.0 | 0.00 | 0.00 | 0.00 | 93 | 1009.0 |
| 20260506084726 | 77 | 239 | 0.0 | 0.0 | 0.00 | 0.00 | 0.00 | 93 | 1009.1 |
| 20260506084221 | 77 | 239 | 0.0 | 0.0 | 0.00 | 0.00 | 0.00 | 93 | 1009.3 |
| 20260506083719 | 77 | 218 | 0.0 | 0.9 | 0.00 | 0.00 | 0.00 | 92 | 1009.3 |
| 20260506083216 | 77 | 221 | 0.0 | 1.7 | 0.00 | 0.00 | 0.00 | 92 | 1009.6 |
| 20260506082713 | 77 | 200 | 0.9 | 0.9 | 0.00 | 0.00 | 0.00 | 92 | 1009.4 |
| 20260506082209 | 77 | 245 | 0.0 | 0.9 | 0.00 | 0.00 | 0.00 | 92 | 1009.3 |
| 20260506081706 | 77 | 213 | 0.9 | 1.7 | 0.00 | 0.00 | 0.00 | 92 | 1009.1 |
| 20260506081203 | 77 | 130 | 0.9 | 1.7 | 0.00 | 0.00 | 0.00 | 92 | 1009.4 |
| 20260506080701 | 77 | 208 | 0.0 | 2.6 | 0.00 | 0.00 | 0.00 | 92 | 1009.4 |
| 20260506080158 | 77 | 172 | 0.9 | 1.7 | 0.00 | 0.00 | 0.00 | 91 | 1009.6 |
| 20260506073141 | 77 | 188 | 0.0 | 1.7 | 0.00 | 0.00 | 0.00 | 91 | 1009.9 |
| 20260506072638 | 77 | 137 | 1.7 | 1.7 | 0.00 | 0.00 | 0.00 | 91 | 1009.9 |
| 20260506072136 | 77 | 200 | 0.9 | 0.9 | 0.00 | 0.00 | 0.00 | 91 | 1010.0 |
| 20260506071633 | 77 | 196 | 1.7 | 2.6 | 0.00 | 0.00 | 0.00 | 91 | 1010.0 |
| 20260506071131 | 77 | 238 | 0.0 | 0.9 | 0.00 | 0.00 | 0.00 | 91 | 1010.1 |
| 20260506070627 | 77 | 228 | 0.9 | 1.7 | 0.00 | 0.00 | 0.00 | 91 | 1010.2 |
| 20260506070125 | 77 | 191 | 0.9 | 1.7 | 0.00 | 0.00 | 0.00 | 90 | 1010.1 |
| 20260506062102 | 77 | 251 | 0.0 | 2.6 | 0.00 | 0.00 | 0.00 | 90 | 1010.0 |
| 20260506061557 | 77 | 224 | 0.9 | 2.6 | 0.00 | 0.00 | 0.00 | 90 | 1010.0 |
| 20260506061055 | 77 | 272 | 0.0 | 1.7 | 0.00 | 0.00 | 0.00 | 90 | 1009.8 |
| 20260506060554 | 77 | 124 | 0.0 | 0.9 | 0.00 | 0.00 | 0.00 | 90 | 1009.9 |
| 20260506051022 | 77 | 214 | 0.0 | 1.7 | 0.00 | 0.00 | 0.00 | 89 | 1010.2 |
| 20260506050520 | 77 | 185 | 0.9 | 1.7 | 0.00 | 0.00 | 0.00 | 89 | 1010.0 |
| 20260506045011 | 77 | 230 | 0.0 | 2.6 | 0.00 | 0.00 | 0.00 | 89 | 1010.1 |
| 20260506044509 | 77 | 219 | 0.0 | 1.7 | 0.00 | 0.00 | 0.00 | 89 | 1010.1 |
| 20260506044005 | 77 | 143 | 0.9 | 1.7 | 0.00 | 0.00 | 0.00 | 89 | 1010.0 |
| 20260506043502 | 77 | 195 | 0.9 | 2.6 | 0.00 | 0.00 | 0.00 | 89 | 1009.9 |
| 20260506043000 | 77 | 203 | 1.7 | 3.5 | 0.00 | 0.00 | 0.00 | 89 | 1010.0 |
| 20260506042455 | 77 | 332 | 0.0 | 2.6 | 0.00 | 0.00 | 0.00 | 89 | 1009.9 |
| 20260506041952 | 77 | 109 | 0.9 | 1.7 | 0.00 | 0.00 | 0.00 | 89 | 1010.0 |
| 20260506041450 | 77 | 258 | 0.9 | 5.2 | 0.00 | 0.00 | 0.00 | 89 | 1010.0 |
| 20260506040947 | 77 | 135 | 0.0 | 1.7 | 0.00 | 0.00 | 0.00 | 89 | 1010.0 |
| 20260506040445 | 77 | 261 | 0.9 | 2.6 | 0.00 | 0.00 | 0.00 | 89 | 1009.8 |
| 20260506035940 | 77 | 178 | 1.7 | 3.5 | 0.00 | 0.00 | 0.00 | 89 | 1009.8 |
| 20260506035438 | 77 | 140 | 0.9 | 2.6 | 0.00 | 0.00 | 0.00 | 89 | 1010.0 |
| 20260506034934 | 78 | 226 | 1.7 | 3.5 | 0.00 | 0.00 | 0.00 | 89 | 1009.8 |
| 20260506034431 | 78 | 129 | 1.7 | 2.6 | 0.00 | 0.00 | 0.00 | 88 | 1009.8 |
| 20260506033929 | 78 | 229 | 0.9 | 2.6 | 0.00 | 0.00 | 0.00 | 88 | 1009.8 |
| 20260506033426 | 78 | 152 | 1.7 | 2.6 | 0.00 | 0.00 | 0.00 | 88 | 1009.7 |
| 20260506032922 | 78 | 204 | 0.9 | 2.6 | 0.00 | 0.00 | 0.00 | 88 | 1009.6 |
| 20260506032420 | 78 | 116 | 0.0 | 3.5 | 0.00 | 0.00 | 0.00 | 88 | 1009.8 |
| 20260506031916 | 78 | 125 | 3.5 | 5.2 | 0.00 | 0.00 | 0.00 | 89 | 1009.5 |
| 20260506031414 | 78 | 196 | 0.0 | 5.2 | 0.00 | 0.00 | 0.00 | 89 | 1009.5 |
| 20260506030911 | 77 | 236 | 0.9 | 1.7 | 0.00 | 0.00 | 0.00 | 89 | 1009.6 |
| 20260506030409 | 77 | 85 | 0.9 | 2.6 | 0.00 | 0.00 | 0.00 | 89 | 1009.6 |
| 20260506025905 | 77 | 180 | 2.6 | 3.5 | 0.00 | 0.00 | 0.00 | 89 | 1009.7 |
| 20260506025403 | 77 | 218 | 0.9 | 1.7 | 0.00 | 0.00 | 0.00 | 89 | 1009.5 |
| 20260506024859 | 77 | 173 | 0.9 | 2.6 | 0.00 | 0.00 | 0.00 | 89 | 1009.3 |
| 20260506024356 | 77 | 240 | 0.0 | 5.2 | 0.00 | 0.00 | 0.00 | 89 | 1009.4 |
| 20260506023852 | 77 | 206 | 0.9 | 1.7 | 0.00 | 0.00 | 0.00 | 89 | 1009.2 |
| 20260506023349 | 77 | 182 | 0.9 | 3.5 | 0.00 | 0.00 | 0.00 | 89 | 1009.2 |
| 20260506022846 | 77 | 163 | 0.9 | 1.7 | 0.00 | 0.00 | 0.00 | 89 | 1009.1 |
| 20260506022344 | 77 | 193 | 1.7 | 6.1 | 0.00 | 0.00 | 0.00 | 89 | 1009.1 |
| 20260506021841 | 77 | 182 | 0.9 | 1.7 | 0.00 | 0.00 | 0.00 | 89 | 1009.0 |
| 20260506021338 | 77 | 192 | 0.9 | 2.6 | 0.00 | 0.00 | 0.00 | 89 | 1008.9 |
| 20260506020835 | 77 | 184 | 0.0 | 3.5 | 0.00 | 0.00 | 0.00 | 88 | 1008.8 |
| 20260506020333 | 77 | 226 | 0.9 | 1.7 | 0.00 | 0.00 | 0.00 | 88 | 1008.9 |
| 20260506015830 | 78 | 113 | 0.9 | 0.9 | 0.00 | 0.00 | 0.00 | 88 | 1008.7 |
| 20260506015327 | 78 | 201 | 0.9 | 1.7 | 0.00 | 0.00 | 0.00 | 87 | 1008.7 |
| 20260506014824 | 78 | 160 | 0.9 | 1.7 | 0.00 | 0.00 | 0.00 | 87 | 1008.6 |
| 20260506014321 | 78 | 179 | 0.0 | 2.6 | 0.00 | 0.00 | 0.00 | 87 | 1008.5 |
| 20260506013818 | 78 | 219 | 0.9 | 2.6 | 0.00 | 0.00 | 0.00 | 87 | 1008.5 |
| 20260506013315 | 78 | 195 | 2.6 | 2.6 | 0.00 | 0.00 | 0.00 | 87 | 1008.5 |
| 20260506012811 | 78 | 244 | 0.9 | 3.5 | 0.00 | 0.00 | 0.00 | 86 | 1008.5 |
| 20260506012309 | 78 | 238 | 0.9 | 2.6 | 0.00 | 0.00 | 0.00 | 86 | 1008.4 |
| 20260506011806 | 78 | 356 | 0.9 | 1.7 | 0.00 | 0.00 | 0.00 | 86 | 1008.3 |
| 20260506011302 | 78 | 182 | 0.9 | 1.7 | 0.00 | 0.00 | 0.00 | 86 | 1008.2 |
| 20260506010800 | 78 | 233 | 2.6 | 3.5 | 0.00 | 0.00 | 0.00 | 86 | 1008.1 |
| 20260506010257 | 78 | 143 | 2.6 | 7.8 | 0.00 | 0.00 | 0.00 | 86 | 1008.0 |
| 20260506005754 | 78 | 233 | 0.9 | 1.7 | 0.00 | 0.00 | 0.00 | 86 | 1008.0 |
| 20260506005251 | 78 | 101 | 1.7 | 3.5 | 0.00 | 0.00 | 0.00 | 86 | 1007.9 |
| 20260506004747 | 79 | 122 | 0.9 | 6.1 | 0.00 | 0.00 | 0.00 | 85 | 1008.0 |
| 20260506004245 | 79 | 237 | 0.9 | 1.7 | 0.00 | 0.00 | 0.00 | 85 | 1007.7 |
| 20260506003740 | 79 | 235 | 0.0 | 2.6 | 0.00 | 0.00 | 0.00 | 85 | 1007.8 |
| 20260506003237 | 79 | 199 | 0.0 | 2.6 | 0.00 | 0.00 | 0.00 | 85 | 1007.7 |
| 20260506002734 | 79 | 238 | 0.9 | 1.7 | 0.00 | 0.00 | 0.00 | 85 | 1007.8 |
| 20260506002229 | 79 | 130 | 0.9 | 2.6 | 0.00 | 0.00 | 0.00 | 84 | 1007.9 |
| 20260506001725 | 79 | 193 | 2.6 | 7.8 | 0.00 | 0.00 | 0.00 | 84 | 1007.7 |
| 20260506001223 | 79 | 186 | 1.7 | 3.5 | 0.00 | 0.00 | 0.00 | 84 | 1007.7 |
| 20260506000720 | 79 | 340 | 1.7 | 3.5 | 0.00 | 0.00 | 0.00 | 84 | 1007.8 |
| 20260506000219 | 79 | 207 | 0.9 | 3.5 | 0.00 | 0.00 | 0.00 | 84 | 1007.9 |
| 20260505235715 | 79 | 133 | 0.9 | 3.5 | 0.00 | 0.00 | 0.00 | 84 | 1008.0 |
| 20260505235213 | 79 | 216 | 0.9 | 5.2 | 0.00 | 0.00 | 0.00 | 83 | 1007.8 |
| 20260505234709 | 79 | 200 | 0.9 | 1.7 | 0.00 | 0.00 | 0.00 | 83 | 1007.8 |
| 20260505234206 | 80 | 157 | 1.7 | 2.6 | 0.00 | 0.00 | 0.00 | 83 | 1007.8 |
| 20260505233702 | 80 | 169 | 2.6 | 6.1 | 0.00 | 0.00 | 0.00 | 83 | 1007.9 |
| 20260505233201 | 80 | 164 | 1.7 | 7.8 | 0.00 | 0.00 | 0.00 | 82 | 1008.0 |
| 20260505232658 | 80 | 245 | 1.7 | 5.2 | 0.00 | 0.00 | 0.00 | 82 | 1008.0 |
| 20260505232155 | 80 | 224 | 0.9 | 6.1 | 0.00 | 0.00 | 0.00 | 81 | 1007.9 |
| 20260505231652 | 80 | 266 | 1.7 | 3.5 | 0.00 | 0.00 | 0.00 | 82 | 1007.9 |
| 20260505231151 | 80 | 119 | 1.7 | 6.1 | 0.00 | 0.00 | 0.00 | 81 | 1007.7 |
| 20260505230649 | 80 | 235 | 0.9 | 7.0 | 0.00 | 0.00 | 0.00 | 81 | 1007.9 |
| 20260505230145 | 80 | 225 | 0.9 | 2.6 | 0.00 | 0.00 | 0.00 | 81 | 1007.9 |
| 20260505225641 | 80 | 139 | 0.9 | 2.6 | 0.00 | 0.00 | 0.00 | 81 | 1007.8 |
| 20260505225137 | 80 | 145 | 1.7 | 7.8 | 0.00 | 0.00 | 0.00 | 81 | 1008.0 |
| 20260505224633 | 80 | 74 | 3.5 | 6.1 | 0.00 | 0.00 | 0.00 | 81 | 1007.8 |
| 20260505224132 | 80 | 250 | 3.5 | 5.2 | 0.00 | 0.00 | 0.00 | 81 | 1007.8 |
| 20260505223629 | 80 | 232 | 0.9 | 1.7 | 0.00 | 0.00 | 0.00 | 82 | 1007.9 |
| 20260505223125 | 80 | 121 | 0.0 | 0.9 | 0.00 | 0.00 | 0.00 | 83 | 1007.8 |
| 20260505222621 | 80 | 269 | 1.7 | 3.5 | 0.00 | 0.00 | 0.00 | 82 | 1008.0 |
| 20260505222117 | 80 | 109 | 0.9 | 2.6 | 0.00 | 0.00 | 0.00 | 82 | 1008.1 |
| 20260505221614 | 80 | 251 | 0.9 | 2.6 | 0.00 | 0.00 | 0.00 | 83 | 1008.0 |
| 20260505221111 | 81 | 238 | 1.7 | 3.5 | 0.00 | 0.00 | 0.00 | 82 | 1008.0 |
| 20260505220609 | 80 | 206 | 0.0 | 2.6 | 0.00 | 0.00 | 0.00 | 83 | 1008.0 |
| 20260505220106 | 80 | 238 | 3.5 | 6.1 | 0.00 | 0.00 | 0.00 | 83 | 1008.1 |
| 20260505215604 | 80 | 190 | 1.7 | 7.0 | 0.00 | 0.00 | 0.00 | 82 | 1008.1 |
| 20260505215101 | 81 | 172 | 0.9 | 3.5 | 0.00 | 0.00 | 0.00 | 82 | 1008.3 |
| 20260505214554 | 81 | 190 | 3.5 | 6.1 | 0.00 | 0.00 | 0.00 | 81 | 1008.2 |
| 20260505214050 | 81 | 185 | 1.7 | 3.5 | 0.00 | 0.00 | 0.00 | 80 | 1008.4 |
| 20260505213548 | 81 | 111 | 2.6 | 5.2 | 0.00 | 0.00 | 0.00 | 79 | 1008.4 |
| 20260505213044 | 81 | 184 | 1.7 | 6.1 | 0.00 | 0.00 | 0.00 | 80 | 1008.2 |
| 20260505212541 | 81 | 221 | 1.7 | 6.1 | 0.00 | 0.00 | 0.00 | 82 | 1008.4 |
| 20260505212038 | 80 | 127 | 3.5 | 5.2 | 0.00 | 0.00 | 0.00 | 82 | 1008.3 |
| 20260505211535 | 80 | 134 | 0.9 | 6.1 | 0.00 | 0.00 | 0.00 | 83 | 1008.5 |
| 20260505211031 | 81 | 168 | 3.5 | 7.0 | 0.00 | 0.00 | 0.00 | 82 | 1008.6 |
| 20260505210528 | 81 | 53 | 1.7 | 2.6 | 0.00 | 0.00 | 0.00 | 82 | 1008.8 |
| 20260505210025 | 81 | 228 | 1.7 | 1.7 | 0.00 | 0.00 | 0.00 | 81 | 1008.5 |
| 20260505205523 | 81 | 142 | 2.6 | 3.5 | 0.00 | 0.00 | 0.00 | 81 | 1008.6 |
| 20260505205020 | 82 | 169 | 2.6 | 5.2 | 0.00 | 0.00 | 0.00 | 81 | 1008.9 |
| 20260505204518 | 81 | 207 | 0.0 | 2.6 | 0.00 | 0.00 | 0.00 | 82 | 1008.9 |
| 20260505204014 | 81 | 258 | 0.9 | 2.6 | 0.00 | 0.00 | 0.00 | 82 | 1009.0 |
| 20260505203511 | 81 | 207 | 1.7 | 5.2 | 0.00 | 0.00 | 0.00 | 82 | 1009.0 |
| 20260505203008 | 81 | 240 | 0.9 | 1.7 | 0.00 | 0.00 | 0.00 | 83 | 1009.2 |
| 20260505202504 | 81 | 155 | 1.7 | 1.7 | 0.00 | 0.00 | 0.00 | 83 | 1009.2 |
| 20260505202000 | 81 | 218 | 0.9 | 5.2 | 0.00 | 0.00 | 0.00 | 82 | 1009.4 |
| 20260505201457 | 82 | 263 | 2.6 | 3.5 | 0.00 | 0.00 | 0.00 | 81 | 1009.2 |
| 20260505200955 | 81 | 100 | 0.9 | 1.7 | 0.00 | 0.00 | 0.00 | 82 | 1009.2 |
| 20260505200452 | 81 | 255 | 1.7 | 6.1 | 0.00 | 0.00 | 0.00 | 83 | 1009.3 |
| 20260505195948 | 81 | 151 | 1.7 | 2.6 | 0.00 | 0.00 | 0.00 | 82 | 1009.4 |
| 20260505195445 | 81 | 219 | 0.9 | 5.2 | 0.00 | 0.00 | 0.00 | 82 | 1009.4 |
| 20260505194942 | 81 | 235 | 1.7 | 6.1 | 0.00 | 0.00 | 0.00 | 82 | 1009.4 |
| 20260505194440 | 81 | 172 | 0.9 | 2.6 | 0.00 | 0.00 | 0.00 | 82 | 1009.3 |
| 20260505193939 | 81 | 217 | 0.9 | 3.5 | 0.00 | 0.00 | 0.00 | 82 | 1009.5 |
| 20260505193437 | 81 | 115 | 1.7 | 2.6 | 0.00 | 0.00 | 0.00 | 81 | 1009.7 |
| 20260505192935 | 81 | 237 | 0.0 | 2.6 | 0.00 | 0.00 | 0.00 | 83 | 1009.4 |
| 20260505192433 | 80 | 186 | 1.7 | 2.6 | 0.00 | 0.00 | 0.00 | 85 | 1009.5 |
| 20260505191930 | 80 | 207 | 1.7 | 1.7 | 0.00 | 0.00 | 0.00 | 86 | 1009.8 |
| 20260505191429 | 80 | 187 | 0.9 | 2.6 | 0.00 | 0.00 | 0.00 | 85 | 1009.9 |
| 20260505190925 | 80 | 194 | 0.9 | 2.6 | 0.00 | 0.00 | 0.00 | 84 | 1009.7 |
| 20260505190421 | 80 | 206 | 1.7 | 1.7 | 0.00 | 0.00 | 0.00 | 84 | 1009.7 |
| 20260505185916 | 80 | 189 | 0.9 | 1.7 | 0.00 | 0.00 | 0.00 | 85 | 1009.7 |